METEOR 2-17 DEB, 38283

Orbit data source: Space-Track

METEOR 2-17 DEB, 38283 is space debris in LEO originally from a launch on Sat, 30 Jan 1988 UTC launched from the Plesetsk Missile And Space Complex (PKMTR). Debris objects in space refer to the collection of defunct objects orbiting the Earth. Examples of debris include non-operational satellites, rocket bodies, and fragments generated from explosions, collisions, or faulty payload assembly.

Loading next visibility...
Identifier
38283, 1988-005AL
Orbit
LEO
Country
Flag of CISCIS
Related business
Manufacturer
Unknown
Mission
Spacecraft
Bus & Motor
Unknown
Mass
Unknown
Launch date (UTC)
1988-01-30 (38 years ago)
Launch vehicle
Unknown
Launch site
Plesetsk Missile And Space Complex (PKMTR)
Object type
Payload
Rocket body
Debris
Shape & HBR
Unknown shape, 0.1 m
Radar Cross Section
Small (<0.1 m²)

Expand to show TLE details & history
Last TLE update: 1 day ago

TLE from 1 day ago
0 METEOR 2-17 DEB
1 38283U 88005AL  25306.14073731  .00003220  00000-0  21485-2 0  9996
2 38283  82.5475  96.1697 0019759 185.0526 175.0447 14.00714550 71950
Epoch: 2025-11-02T03:22Z
TLE epoch observation values (Epoch: 2025-11-02T03:22:39.703Z)
Latitude
-0.00006°
Longitude
3.84353°
Altitude
908.56 km
Speed
7.39 km/s
True Right ascension
06h 24m 40s
True Declination
0° 00' 00"
Sunlit
Object was in full shadow at epoch
Visualization orbit readout
Latitude
Unknown
Longitude
Unknown
Altitude
Unknown
Speed
Unknown
Apparent Right ascension
Unknown
Apparent Declination
Unknown
Sunlit
N/A
Visualization observer readout
Local Sidereal Time
07:35:11
Azimuth
Unknown
Elevation
Unknown
Doppler factor
Unknown
Orbital elements
Apogee altitude
902.809 km
Perigee altitude
874.093 km
Semi-major axis
7,266.588 km
Eccentricity
0.00198
Inclination
82.5475°
RAAN
96.1697°
Arg. of periapsis
185.0526°
True anomaly
175.06421°
Mean anomaly
175.0447°
Eccentric anomaly
175.05446°
Mean motion
3.50387 °/min
Orbital period
102.74 mins
BSTAR
0.0021485
Loading maneuver chart data...
Computing Atmospheric mass density...
Loading historical data...
Loading historical data...
Loading historical data...
Loading historical data...
Loading historical data...
Loading historical data...
Loading historical data...

Documentation

Showing up to 5 results
|